No particular awareness of the weather is required.    There are no Weather-warnings


Meteo18 Weather Cam more information Meteo18 Weather Cam


Thunder radar more information blitzortung!


Rain radar more information rain snow radar


Visit our other weather sites:

Template documentation
and downloads

And another site



Weather Underground History page Text

Daily Summary for October 23, 2017 Units:  Metric    English   Both
« Previous Day
Next Day »
Daily Weekly Monthly Yearly Custom
  High: Low: Average:
Temperature: 12.7 °C 8.8 °C 10.8 °C
Dew Point: 11.2 °C 7.1 °C 9 °C
Humidity: 97 % 83 % 89 %
Wind Speed: 19.3 km/h 0.0 km/h 5.3 km/h
Wind Gust: 22.5 km/h - -
Wind:- - WSW
Pressure: 1027.0 hPa 1024.9 hPa -
Precipitation: 0.5 mm    
Historical Graphs
 
 
Tabular Data for October 23, 2017
Time Temperature Dew Point Pressure Wind Wind Speed Wind Gust Humidity Rainfall Rate (Hourly)
00:02 9.8 °C 7.4 °C 1025.3 hPa SW 9.7 km/h 17.7 km/h 85 % 0.0 mm
00:12 9.8 °C 7.4 °C 1025.3 hPa SW 9.7 km/h 19.3 km/h 85 % 0.0 mm
00:17 9.7 °C 7.3 °C 1025.3 hPa West 8.0 km/h 19.3 km/h 85 % 0.0 mm
00:22 9.8 °C 7.4 °C 1025.3 hPa SW 8.0 km/h 22.5 km/h 85 % 0.0 mm
00:32 9.8 °C 7.4 °C 1025.6 hPa WSW 9.7 km/h 22.5 km/h 85 % 0.0 mm
00:37 9.7 °C 7.3 °C 1025.6 hPa WSW 8.0 km/h 22.5 km/h 85 % 0.0 mm
00:42 9.7 °C 7.3 °C 1025.3 hPa WSW 8.0 km/h 14.5 km/h 85 % 0.0 mm
00:47 9.7 °C 7.3 °C 1025.3 hPa West 9.7 km/h 11.3 km/h 85 % 0.0 mm
00:57 9.6 °C 7.4 °C 1025.6 hPa West 6.4 km/h 11.3 km/h 86 % 0.0 mm
01:02 9.6 °C 7.4 °C 1025.6 hPa West 1.6 km/h 11.3 km/h 86 % 0.0 mm
01:12 9.6 °C 7.4 °C 1025.3 hPa West 3.2 km/h 9.7 km/h 86 % 0.0 mm
01:17 9.6 °C 7.4 °C 1025.6 hPa WSW 1.6 km/h 6.4 km/h 86 % 0.0 mm
01:22 9.6 °C 7.4 °C 1025.3 hPa West 6.4 km/h 6.4 km/h 86 % 0.0 mm
01:32 9.7 °C 7.3 °C 1025.6 hPa West 3.2 km/h 12.9 km/h 85 % 0.0 mm
01:37 9.8 °C 7.4 °C 1025.3 hPa WSW 3.2 km/h 12.9 km/h 85 % 0.0 mm
01:42 9.8 °C 7.2 °C 1025.3 hPa WSW 3.2 km/h 12.9 km/h 84 % 0.0 mm
01:47 9.8 °C 7.2 °C 1025.3 hPa West 1.6 km/h 8.0 km/h 84 % 0.0 mm
01:52 9.8 °C 7.2 °C 1025.3 hPa WSW 8.0 km/h 8.0 km/h 84 % 0.0 mm
01:57 9.8 °C 7.2 °C 1025.3 hPa West 8.0 km/h 11.3 km/h 84 % 0.0 mm
02:02 9.8 °C 7.2 °C 1025.3 hPa Calm   11.3 km/h 84 % 0.0 mm
02:07 9.8 °C 7.2 °C 1025.3 hPa WSW 3.2 km/h 12.9 km/h 84 % 0.0 mm
02:12 9.8 °C 7.2 °C 1025.3 hPa SW 4.8 km/h 12.9 km/h 84 % 0.0 mm
02:17 9.8 °C 7.2 °C 1025.3 hPa West 8.0 km/h 9.7 km/h 84 % 0.0 mm
02:22 9.8 °C 7.2 °C 1025.3 hPa WSW 8.0 km/h 9.7 km/h 84 % 0.0 mm
02:32 9.8 °C 7.2 °C 1025.3 hPa WNW 1.6 km/h 9.7 km/h 84 % 0.0 mm
02:37 9.8 °C 7.2 °C 1025.3 hPa WSW 1.6 km/h 11.3 km/h 84 % 0.0 mm
02:42 9.7 °C 7.1 °C 1025.3 hPa West 1.6 km/h 11.3 km/h 84 % 0.0 mm
02:47 9.7 °C 7.3 °C 1025.3 hPa WSW 3.2 km/h 9.7 km/h 85 % 0.0 mm
02:52 9.7 °C 7.3 °C 1025.3 hPa SW 1.6 km/h 9.7 km/h 85 % 0.0 mm
02:57 9.7 °C 7.3 °C 1025.3 hPa Calm   11.3 km/h 85 % 0.0 mm
03:02 9.6 °C 7.2 °C 1025.3 hPa Calm   11.3 km/h 85 % 0.0 mm
03:12 9.6 °C 7.2 °C 1025.3 hPa NNW 1.6 km/h 11.3 km/h 85 % 0.0 mm
03:17 9.6 °C 7.2 °C 1025.3 hPa Calm   6.4 km/h 85 % 0.0 mm
03:22 9.6 °C 7.2 °C 1025.3 hPa Calm   6.4 km/h 85 % 0.0 mm
03:27 9.6 °C 7.4 °C 1024.9 hPa WSW 1.6 km/h 3.2 km/h 86 % 0.0 mm
03:32 9.5 °C 7.3 °C 1025.3 hPa WNW 1.6 km/h 3.2 km/h 86 % 0.0 mm
03:37 9.6 °C 7.4 °C 1025.3 hPa Calm   3.2 km/h 86 % 0.0 mm
03:42 9.5 °C 7.3 °C 1025.3 hPa Calm   3.2 km/h 86 % 0.0 mm
03:52 9.6 °C 7.4 °C 1025.3 hPa Calm   3.2 km/h 86 % 0.0 mm
04:02 9.6 °C 7.2 °C 1024.9 hPa Calm   4.8 km/h 85 % 0.0 mm
04:07 9.6 °C 7.2 °C 1024.9 hPa North 3.2 km/h 4.8 km/h 85 % 0.0 mm
04:12 9.7 °C 7.3 °C 1025.3 hPa WNW 1.6 km/h 4.8 km/h 85 % 0.0 mm
04:17 9.7 °C 7.1 °C 1024.9 hPa WSW 1.6 km/h 6.4 km/h 84 % 0.0 mm
04:22 9.9 °C 7.3 °C 1024.9 hPa NW 6.4 km/h 6.4 km/h 84 % 0.0 mm
04:32 10.0 °C 7.2 °C 1024.9 hPa WSW 4.8 km/h 12.9 km/h 83 % 0.0 mm
04:37 9.9 °C 7.3 °C 1024.9 hPa West 4.8 km/h 16.1 km/h 84 % 0.0 mm
04:42 9.9 °C 7.3 °C 1025.3 hPa West 3.2 km/h 16.1 km/h 84 % 0.0 mm
04:47 9.9 °C 7.3 °C 1024.9 hPa West 4.8 km/h 14.5 km/h 84 % 0.0 mm
04:52 9.9 °C 7.3 °C 1024.9 hPa WNW 8.0 km/h 14.5 km/h 84 % 0.0 mm
05:02 9.8 °C 7.4 °C 1024.9 hPa WSW 11.3 km/h 17.7 km/h 85 % 0.0 mm
05:17 9.7 °C 7.3 °C 1024.9 hPa WSW 6.4 km/h 17.7 km/h 85 % 0.0 mm
05:22 9.8 °C 7.4 °C 1024.9 hPa West 12.9 km/h 17.7 km/h 85 % 0.0 mm
05:32 9.7 °C 7.3 °C 1024.9 hPa West 6.4 km/h 16.1 km/h 85 % 0.0 mm
05:42 9.7 °C 7.3 °C 1025.3 hPa West 3.2 km/h 16.1 km/h 85 % 0.0 mm
05:47 9.6 °C 7.4 °C 1025.3 hPa WNW 8.0 km/h 16.1 km/h 86 % 0.0 mm
05:52 9.6 °C 7.4 °C 1025.3 hPa West 4.8 km/h 16.1 km/h 86 % 0.0 mm
06:02 9.6 °C 7.4 °C 1025.3 hPa WSW 9.7 km/h 12.9 km/h 86 % 0.0 mm
06:12 9.7 °C 7.3 °C 1025.3 hPa West 19.3 km/h 19.3 km/h 85 % 0.0 mm
06:17 9.6 °C 7.4 °C 1025.3 hPa WSW 8.0 km/h 19.3 km/h 86 % 0.0 mm
06:22 9.6 °C 7.4 °C 1025.3 hPa SW 4.8 km/h 19.3 km/h 86 % 0.0 mm
06:27 9.6 °C 7.4 °C 1025.3 hPa West 9.7 km/h 20.9 km/h 86 % 0.0 mm
06:32 9.5 °C 7.3 °C 1025.6 hPa WSW 6.4 km/h 20.9 km/h 86 % 0.0 mm
06:37 9.5 °C 7.3 °C 1025.6 hPa WSW 9.7 km/h 20.9 km/h 86 % 0.0 mm
06:42 9.5 °C 7.3 °C 1025.6 hPa West 8.0 km/h 20.9 km/h 86 % 0.0 mm
06:47 9.4 °C 7.3 °C 1025.6 hPa West 4.8 km/h 20.9 km/h 87 % 0.0 mm
06:52 9.4 °C 7.3 °C 1025.6 hPa WSW 9.7 km/h 20.9 km/h 87 % 0.0 mm
06:57 9.3 °C 7.2 °C 1025.6 hPa WSW 1.6 km/h 14.5 km/h 87 % 0.0 mm
07:02 9.3 °C 7.4 °C 1025.6 hPa West 4.8 km/h 14.5 km/h 88 % 0.0 mm
07:12 9.2 °C 7.3 °C 1025.3 hPa West 6.4 km/h 14.5 km/h 88 % 0.0 mm
07:17 9.3 °C 7.4 °C 1025.3 hPa WSW 9.7 km/h 14.5 km/h 88 % 0.0 mm
07:27 9.3 °C 7.4 °C 1025.6 hPa West 9.7 km/h 17.7 km/h 88 % 0.0 mm
07:32 9.2 °C 7.3 °C 1025.3 hPa WSW 11.3 km/h 17.7 km/h 88 % 0.0 mm
07:42 8.9 °C 7.3 °C 1025.3 hPa West 9.7 km/h 17.7 km/h 90 % 0.0 mm
07:47 8.9 °C 7.3 °C 1025.3 hPa West 6.4 km/h 19.3 km/h 90 % 0.0 mm
07:52 8.9 °C 7.3 °C 1025.3 hPa WSW 8.0 km/h 19.3 km/h 90 % 0.0 mm
07:57 8.8 °C 7.2 °C 1025.3 hPa WSW 11.3 km/h 19.3 km/h 90 % 0.0 mm
08:02 8.8 °C 7.2 °C 1025.3 hPa SW 6.4 km/h 19.3 km/h 90 % 0.0 mm
08:12 8.8 °C 7.2 °C 1025.6 hPa WSW 6.4 km/h 19.3 km/h 90 % 0.0 mm
08:22 8.8 °C 7.2 °C 1025.3 hPa West 8.0 km/h 14.5 km/h 90 % 0.0 mm
08:32 8.9 °C 7.3 °C 1025.3 hPa West 4.8 km/h 16.1 km/h 90 % 0.0 mm
08:42 9.1 °C 7.4 °C 1025.6 hPa WSW 8.0 km/h 16.1 km/h 89 % 0.0 mm
08:52 9.1 °C 7.4 °C 1025.6 hPa West 9.7 km/h 16.1 km/h 89 % 0.0 mm
08:57 9.1 °C 7.4 °C 1025.6 hPa WSW 12.9 km/h 17.7 km/h 89 % 0.0 mm
09:02 9.1 °C 7.4 °C 1025.6 hPa WSW 14.5 km/h 17.7 km/h 89 % 0.0 mm
09:12 9.1 °C 7.5 °C 1026.0 hPa WSW 8.0 km/h 19.3 km/h 90 % 0.0 mm
09:17 9.0 °C 7.4 °C 1026.0 hPa West 9.7 km/h 17.7 km/h 90 % 0.0 mm
09:22 9.0 °C 7.4 °C 1026.0 hPa West 12.9 km/h 17.7 km/h 90 % 0.0 mm
09:32 9.1 °C 7.5 °C 1026.3 hPa West 6.4 km/h 17.7 km/h 90 % 0.0 mm
09:42 9.1 °C 7.5 °C 1026.3 hPa SW 6.4 km/h 16.1 km/h 90 % 0.0 mm
09:52 9.2 °C 7.6 °C 1026.6 hPa West 9.7 km/h 16.1 km/h 90 % 0.0 mm
10:02 9.3 °C 7.7 °C 1026.6 hPa West 4.8 km/h 14.5 km/h 90 % 0.0 mm
10:12 9.4 °C 7.8 °C 1026.3 hPa SW 1.6 km/h 14.5 km/h 90 % 0.0 mm
10:17 9.4 °C 7.8 °C 1026.3 hPa WSW 8.0 km/h 12.9 km/h 90 % 0.0 mm
10:27 9.5 °C 7.9 °C 1026.3 hPa SSW 1.6 km/h 12.9 km/h 90 % 0.0 mm
10:32 9.6 °C 8.0 °C 1026.3 hPa WSW 8.0 km/h 12.9 km/h 90 % 0.0 mm
10:37 9.7 °C 8.1 °C 1026.6 hPa West 8.0 km/h 11.3 km/h 90 % 0.0 mm
10:42 9.7 °C 8.1 °C 1026.6 hPa WSW 3.2 km/h 11.3 km/h 90 % 0.0 mm
10:47 9.8 °C 8.2 °C 1026.6 hPa WSW 6.4 km/h 14.5 km/h 90 % 0.0 mm
10:52 9.8 °C 8.1 °C 1026.6 hPa West 3.2 km/h 14.5 km/h 89 % 0.0 mm
10:57 9.8 °C 8.2 °C 1026.6 hPa WSW 3.2 km/h 12.9 km/h 90 % 0.0 mm
11:02 9.9 °C 8.3 °C 1026.6 hPa SSW 1.6 km/h 12.9 km/h 90 % 0.0 mm
11:12 9.9 °C 8.3 °C 1026.6 hPa SW 4.8 km/h 11.3 km/h 90 % 0.0 mm
11:17 9.9 °C 8.3 °C 1026.3 hPa SW 4.8 km/h 9.7 km/h 90 % 0.0 mm
11:22 10.0 °C 8.4 °C 1026.3 hPa West 1.6 km/h 9.7 km/h 90 % 0.0 mm
11:27 10.1 °C 8.5 °C 1026.3 hPa SW 8.0 km/h 9.7 km/h 90 % 0.0 mm
11:32 10.1 °C 8.7 °C 1026.3 hPa West 8.0 km/h 9.7 km/h 91 % 0.0 mm
11:37 10.2 °C 8.6 °C 1026.3 hPa WSW 9.7 km/h 20.9 km/h 90 % 0.0 mm
11:42 10.1 °C 8.7 °C 1026.3 hPa SW 6.4 km/h 20.9 km/h 91 % 0.0 mm
11:52 10.2 °C 8.6 °C 1026.6 hPa West 11.3 km/h 19.3 km/h 90 % 0.0 mm
12:12 10.5 °C 8.9 °C 1026.6 hPa WSW 8.0 km/h 14.5 km/h 90 % 0.0 mm
12:17 10.6 °C 9.0 °C 1026.6 hPa WSW 1.6 km/h 11.3 km/h 90 % 0.0 mm
12:22 10.7 °C 9.1 °C 1026.6 hPa WSW 4.8 km/h 11.3 km/h 90 % 0.0 mm
12:32 10.9 °C 9.2 °C 1027.0 hPa Calm   11.3 km/h 89 % 0.0 mm
12:37 11.0 °C 9.3 °C 1027.0 hPa SW 3.2 km/h 11.3 km/h 89 % 0.0 mm
12:42 11.1 °C 9.4 °C 1027.0 hPa SSW 3.2 km/h 11.3 km/h 89 % 0.0 mm
12:52 11.2 °C 9.3 °C 1026.6 hPa WNW 4.8 km/h 11.3 km/h 88 % 0.0 mm
12:57 11.3 °C 9.4 °C 1026.6 hPa West 1.6 km/h 9.7 km/h 88 % 0.0 mm
13:07 11.4 °C 9.3 °C 1026.6 hPa West 1.6 km/h 11.3 km/h 87 % 0.0 mm
13:12 11.5 °C 9.4 °C 1026.6 hPa Calm   11.3 km/h 87 % 0.0 mm
13:17 11.6 °C 9.5 °C 1027.0 hPa West 4.8 km/h 11.3 km/h 87 % 0.0 mm
13:22 11.7 °C 9.4 °C 1026.6 hPa West 9.7 km/h 11.3 km/h 86 % 0.0 mm
13:32 12.0 °C 9.7 °C 1026.6 hPa SW 6.4 km/h 14.5 km/h 86 % 0.0 mm
13:42 12.2 °C 9.6 °C 1026.6 hPa WSW 4.8 km/h 14.5 km/h 84 % 0.0 mm
13:47 12.3 °C 9.7 °C 1026.6 hPa SW 6.4 km/h 14.5 km/h 84 % 0.0 mm
13:52 12.4 °C 9.8 °C 1026.6 hPa SW 4.8 km/h 14.5 km/h 84 % 0.0 mm
14:02 12.6 °C 10.1 °C 1026.3 hPa West 9.7 km/h 14.5 km/h 85 % 0.0 mm
14:12 12.7 °C 10.1 °C 1026.3 hPa SW 3.2 km/h 12.9 km/h 84 % 0.0 mm
14:17 12.7 °C 9.9 °C 1026.0 hPa SW 16.1 km/h 17.7 km/h 83 % 0.0 mm
14:22 12.7 °C 10.1 °C 1026.3 hPa WSW 4.8 km/h 17.7 km/h 84 % 0.0 mm
14:32 12.7 °C 10.2 °C 1026.3 hPa SW 3.2 km/h 17.7 km/h 85 % 0.0 mm
14:37 12.6 °C 10.1 °C 1026.3 hPa West 9.7 km/h 14.5 km/h 85 % 0.0 mm
14:42 12.5 °C 10.0 °C 1026.3 hPa West 6.4 km/h 14.5 km/h 85 % 0.0 mm
14:52 12.5 °C 10.0 °C 1026.3 hPa SW 1.6 km/h 16.1 km/h 85 % 0.0 mm
14:57 12.5 °C 10.0 °C 1026.3 hPa West 6.4 km/h 16.1 km/h 85 % 0.0 mm
15:02 12.6 °C 10.1 °C 1026.3 hPa SW 8.0 km/h 16.1 km/h 85 % 0.0 mm
15:12 12.5 °C 10.2 °C 1026.3 hPa West 8.0 km/h 16.1 km/h 86 % 0.0 mm
15:17 12.5 °C 10.2 °C 1026.3 hPa West 3.2 km/h 14.5 km/h 86 % 0.0 mm
15:22 12.4 °C 10.1 °C 1026.3 hPa WSW 11.3 km/h 14.5 km/h 86 % 0.0 mm
15:27 12.4 °C 10.3 °C 1026.3 hPa WSW 1.6 km/h 14.5 km/h 87 % 0.0 mm
15:32 12.5 °C 10.4 °C 1026.3 hPa West 6.4 km/h 14.5 km/h 87 % 0.0 mm
15:37 12.5 °C 10.4 °C 1026.3 hPa WSW 3.2 km/h 11.3 km/h 87 % 0.0 mm
15:42 12.4 °C 10.3 °C 1026.3 hPa WSW 3.2 km/h 11.3 km/h 87 % 0.0 mm
15:47 12.4 °C 10.3 °C 1026.3 hPa WSW 3.2 km/h 11.3 km/h 87 % 0.0 mm
15:57 12.4 °C 10.5 °C 1026.0 hPa SW 6.4 km/h 14.5 km/h 88 % 0.0 mm
16:02 12.4 °C 10.6 °C 1026.0 hPa WSW 4.8 km/h 14.5 km/h 89 % 0.0 mm
16:12 12.2 °C 10.8 °C 1026.0 hPa WSW 9.7 km/h 16.1 km/h 91 % 0.0 mm
16:17 12.1 °C 10.7 °C 1026.0 hPa SSW 8.0 km/h 12.9 km/h 91 % 0.0 mm
16:22 12.1 °C 10.8 °C 1026.0 hPa SW 8.0 km/h 12.9 km/h 92 % 0.0 mm
16:27 12.0 °C 10.7 °C 1026.0 hPa WSW 1.6 km/h 17.7 km/h 92 % 0.0 mm
16:32 12.0 °C 10.7 °C 1026.0 hPa Calm   17.7 km/h 92 % 0.0 mm
16:37 11.9 °C 10.6 °C 1026.0 hPa SW 12.9 km/h 16.1 km/h 92 % 0.0 mm
16:42 11.9 °C 10.8 °C 1026.0 hPa SW 4.8 km/h 16.1 km/h 93 % 0.0 mm
16:47 11.8 °C 10.7 °C 1026.0 hPa SW 6.4 km/h 16.1 km/h 93 % 0.0 mm
16:52 11.8 °C 10.7 °C 1026.0 hPa West 3.2 km/h 16.1 km/h 93 % 0.0 mm
17:02 11.8 °C 10.7 °C 1026.0 hPa WSW 6.4 km/h 12.9 km/h 93 % 0.0 mm
17:07 11.9 °C 10.8 °C 1026.0 hPa WSW 4.8 km/h 11.3 km/h 93 % 0.0 mm
17:12 11.9 °C 10.6 °C 1026.0 hPa SW 6.4 km/h 11.3 km/h 92 % 0.0 mm
17:17 11.9 °C 10.6 °C 1026.0 hPa WSW 11.3 km/h 14.5 km/h 92 % 0.0 mm
17:22 12.0 °C 10.7 °C 1026.0 hPa WSW 9.7 km/h 14.5 km/h 92 % 0.0 mm
17:32 12.1 °C 10.8 °C 1026.0 hPa SW 6.4 km/h 14.5 km/h 92 % 0.0 mm
17:42 12.1 °C 10.8 °C 1026.0 hPa SW 3.2 km/h 16.1 km/h 92 % 0.0 mm
17:47 12.1 °C 10.8 °C 1026.0 hPa WSW 4.8 km/h 11.3 km/h 92 % 0.0 mm
17:52 12.1 °C 10.7 °C 1026.0 hPa SW 6.4 km/h 11.3 km/h 91 % 0.0 mm
17:57 12.1 °C 10.7 °C 1026.0 hPa South 3.2 km/h 11.3 km/h 91 % 0.0 mm
18:02 12.2 °C 10.8 °C 1026.0 hPa WSW 11.3 km/h 11.3 km/h 91 % 0.0 mm
18:12 12.2 °C 10.8 °C 1026.0 hPa WSW 3.2 km/h 12.9 km/h 91 % 0.0 mm
18:17 12.2 °C 10.8 °C 1026.0 hPa SW 3.2 km/h 12.9 km/h 91 % 0.0 mm
18:22 12.2 °C 10.8 °C 1026.0 hPa WSW 6.4 km/h 12.9 km/h 91 % 0.0 mm
18:27 12.2 °C 10.8 °C 1026.0 hPa SW 3.2 km/h 12.9 km/h 91 % 0.0 mm
18:32 12.2 °C 10.8 °C 1026.0 hPa SW 1.6 km/h 8.0 km/h 91 % 0.0 mm
18:37 12.2 °C 10.8 °C 1026.0 hPa SW 1.6 km/h 8.0 km/h 91 % 0.0 mm
18:42 12.2 °C 10.8 °C 1026.0 hPa SW 3.2 km/h 8.0 km/h 91 % 0.0 mm
18:47 12.2 °C 10.8 °C 1026.3 hPa SW 3.2 km/h 6.4 km/h 91 % 0.0 mm
18:52 12.2 °C 10.8 °C 1026.3 hPa SW 1.6 km/h 6.4 km/h 91 % 0.0 mm
18:57 12.2 °C 10.9 °C 1026.3 hPa SSW 4.8 km/h 6.4 km/h 92 % 0.0 mm
19:02 12.2 °C 10.9 °C 1026.3 hPa SSW 1.6 km/h 6.4 km/h 92 % 0.0 mm
19:12 12.2 °C 10.9 °C 1026.6 hPa SSW 3.2 km/h 6.4 km/h 92 % 0.0 mm
19:17 12.1 °C 10.8 °C 1026.6 hPa South 3.2 km/h 6.4 km/h 92 % 0.0 mm
19:22 12.1 °C 10.8 °C 1026.6 hPa SSW 6.4 km/h 6.4 km/h 92 % 0.0 mm
19:27 12.1 °C 10.8 °C 1026.6 hPa SW 4.8 km/h 6.4 km/h 92 % 0.0 mm
19:32 12.1 °C 10.8 °C 1026.6 hPa SSW 1.6 km/h 6.4 km/h 92 % 0.0 mm
19:37 12.1 °C 10.8 °C 1026.6 hPa SW 3.2 km/h 6.4 km/h 92 % 0.0 mm
19:42 12.0 °C 10.7 °C 1026.6 hPa SSW 3.2 km/h 6.4 km/h 92 % 0.0 mm
19:47 11.9 °C 10.8 °C 1026.6 hPa SSW 3.2 km/h 8.0 km/h 93 % 0.0 mm
19:52 11.9 °C 10.8 °C 1026.6 hPa SSW 1.6 km/h 8.0 km/h 93 % 0.0 mm
19:57 11.8 °C 10.7 °C 1026.6 hPa SSW 1.6 km/h 8.0 km/h 93 % 0.0 mm
20:02 11.8 °C 10.9 °C 1026.6 hPa SSW 4.8 km/h 8.0 km/h 94 % 0.0 mm
20:07 11.7 °C 10.8 °C 1026.6 hPa SSW 3.2 km/h 8.0 km/h 94 % 0.0 mm
20:12 11.7 °C 10.8 °C 1026.6 hPa SSW 6.4 km/h 8.0 km/h 94 % 0.0 mm
20:17 11.7 °C 10.8 °C 1026.6 hPa SSW 1.6 km/h 8.0 km/h 94 % 0.0 mm
20:22 11.6 °C 10.7 °C 1026.6 hPa SSE 3.2 km/h 8.0 km/h 94 % 0.0 mm
20:32 11.6 °C 10.8 °C 1026.6 hPa Calm   6.4 km/h 95 % 0.0 mm
20:37 11.6 °C 10.8 °C 1026.6 hPa SSW 1.6 km/h 4.8 km/h 95 % 0.0 mm
20:42 11.6 °C 10.8 °C 1026.6 hPa SSW 4.8 km/h 4.8 km/h 95 % 0.0 mm
20:47 11.6 °C 10.8 °C 1026.6 hPa SSW 4.8 km/h 9.7 km/h 95 % 0.0 mm
20:52 11.6 °C 10.8 °C 1026.6 hPa SW 4.8 km/h 9.7 km/h 95 % 0.0 mm
20:57 11.6 °C 10.8 °C 1026.6 hPa SSW 3.2 km/h 8.0 km/h 95 % 0.0 mm
21:02 11.6 °C 10.8 °C 1026.6 hPa SW 6.4 km/h 8.0 km/h 95 % 0.0 mm
21:12 11.5 °C 10.7 °C 1026.6 hPa South 1.6 km/h 9.7 km/h 95 % 0.3 mm
21:17 11.5 °C 10.7 °C 1026.6 hPa SSW 3.2 km/h 9.7 km/h 95 % 0.3 mm
21:22 11.5 °C 10.7 °C 1026.6 hPa SSW 3.2 km/h 9.7 km/h 95 % 0.3 mm
21:32 11.4 °C 10.8 °C 1026.6 hPa SSW 3.2 km/h 8.0 km/h 96 % 0.3 mm
21:37 11.4 °C 10.8 °C 1026.6 hPa South 3.2 km/h 11.3 km/h 96 % 0.3 mm
21:42 11.4 °C 10.8 °C 1026.6 hPa SSW 1.6 km/h 11.3 km/h 96 % 0.3 mm
21:47 11.4 °C 10.8 °C 1026.6 hPa SW 4.8 km/h 8.0 km/h 96 % 0.3 mm
22:02 11.4 °C 10.8 °C 1026.6 hPa SSW 4.8 km/h 9.7 km/h 96 % 0.3 mm
22:07 11.4 °C 10.8 °C 1026.6 hPa SSW 4.8 km/h 8.0 km/h 96 % 0.0 mm
22:12 11.4 °C 10.8 °C 1026.6 hPa SW 8.0 km/h 8.0 km/h 96 % 0.0 mm
22:17 11.4 °C 10.8 °C 1026.6 hPa South 4.8 km/h 9.7 km/h 96 % 0.0 mm
22:22 11.4 °C 10.8 °C 1026.6 hPa SSW 9.7 km/h 9.7 km/h 96 % 0.0 mm
22:32 11.4 °C 10.8 °C 1026.6 hPa SSW 3.2 km/h 9.7 km/h 96 % 0.0 mm
22:37 11.4 °C 10.8 °C 1026.6 hPa SSW 6.4 km/h 9.7 km/h 96 % 0.0 mm
22:42 11.5 °C 10.9 °C 1026.6 hPa SW 1.6 km/h 9.7 km/h 96 % 0.0 mm
22:47 11.5 °C 10.9 °C 1026.6 hPa SSW 4.8 km/h 9.7 km/h 96 % 0.0 mm
22:52 11.6 °C 11.0 °C 1026.6 hPa SW 4.8 km/h 9.7 km/h 96 % 0.0 mm
22:57 11.6 °C 11.0 °C 1026.6 hPa SSW 6.4 km/h 11.3 km/h 96 % 0.0 mm
23:02 11.6 °C 11.0 °C 1026.6 hPa SSW 3.2 km/h 11.3 km/h 96 % 0.0 mm
23:12 11.6 °C 11.0 °C 1026.6 hPa SW 8.0 km/h 11.3 km/h 96 % 0.3 mm
23:17 11.6 °C 11.0 °C 1026.6 hPa SW 4.8 km/h 11.3 km/h 96 % 0.3 mm
23:22 11.6 °C 11.1 °C 1026.6 hPa SSW 3.2 km/h 11.3 km/h 97 % 0.3 mm
23:27 11.6 °C 11.1 °C 1026.6 hPa SSW 4.8 km/h 9.7 km/h 97 % 0.3 mm
23:32 11.6 °C 11.1 °C 1026.6 hPa SW 4.8 km/h 9.7 km/h 97 % 0.3 mm
23:42 11.6 °C 11.1 °C 1026.6 hPa SSW 4.8 km/h 9.7 km/h 97 % 0.3 mm
23:47 11.7 °C 11.2 °C 1026.6 hPa SW 3.2 km/h 9.7 km/h 97 % 0.3 mm
23:52 11.7 °C 11.2 °C 1026.6 hPa SW 3.2 km/h 9.7 km/h 97 % 0.3 mm
Meteo18
Compliments of Weather Underground - 4 mb

Script developed by  Jim McMurry - jmcmurry@mwt.net Adapted for the template by  Wim van der Kuil - Leuven-Template.eu

You find our weather info also at:

European Weather Network

Weather Underground

Equipment we use:

Weather-station
Davis Vue

Weather-program
Meteohub

Weather-server
Raspberry PI 2 B+

Provider
1 and 1

Davis Vue

Meteohub

Raspberry PI 2 B+

1 and 1